Wind_Speed
49 49 48 47 46 46 45 45 45 45 45 44 44 44 43 42 41 39 37 36 35 35 35 34 32 31 30 30 29 28 27 26 25 24 22 21 21 20 20 19 19 19 18
51 51 51 51 50 50 48 48 47 48 48 47 47 46 46 45 44 42 41 39 38 38 37 37 35 34 33 32 31 31 30 30 29 28 27 26 25 24 23 22 21 21 20
54 54 53 53 53 52 52 51 50 50 50 50 50 50 49 49 48 46 45 44 42 42 41 41 40 38 37 36 35 34 33 33 33 32 32 31 30 29 28 27 26 24 24
59 59 58 57 56 55 55 54 53 53 52 52 52 52 52 51 51 50 49 48 47 45 45 44 43 42 40 39 38 38 37 37 37 37 37 36 36 35 34 33 31 30 29
63 63 63 63 61 60 59 58 57 57 56 56 55 55 55 54 53 52 51 51 50 49 48 47 46 45 43 41 40 39 39 40 40 41 41 41 40 40 39 38 37 35 34
65 66 66 67 67 66 65 63 62 61 60 59 60 59 59 58 57 55 54 53 53 52 51 50 49 48 46 44 42 41 40 40 41 41 42 42 43 42 42 41 40 39 38
70 70 70 70 71 71 70 69 68 67 66 65 64 63 63 62 61 60 59 57 56 56 55 54 53 51 50 48 46 45 43 42 42 42 43 44 44 43 43 43 42 41 41
76 76 77 77 76 76 75 74 73 72 71 70 69 68 67 66 65 64 63 62 61 60 59 58 57 56 54 53 52 50 48 47 46 45 45 45 45 45 45 44 44 43 42
82 83 84 84 84 83 81 80 79 77 76 74 73 72 72 70 68 68 67 66 66 65 64 63 62 60 59 57 56 55 53 52 51 49 49 48 48 48 47 47 46 46 45
86 87 88 88 88 87 86 85 84 83 82 80 78 76 75 74 72 70 69 69 69 68 68 67 66 65 63 62 60 59 58 56 55 54 53 52 51 50 49 49 48 48 47
78 81 84 87 88 89 89 89 88 87 86 85 83 81 79 78 76 74 72 71 70 70 69 69 69 68 67 66 64 63 61 60 58 57 57 55 54 52 51 51 50 50 50
58 62 67 72 76 80 83 85 87 88 88 88 87 86 84 82 80 79 77 74 73 72 71 70 70 70 69 68 67 65 63 62 60 59 58 57 55 54 52 52 52 52 51
39 43 47 51 56 61 66 71 76 81 84 86 87 87 87 86 85 83 82 80 78 75 74 72 71 70 69 68 67 66 65 63 60 59 57 56 56 55 54 53 52 52 52
30 32 36 39 42 46 51 56 63 70 76 80 83 85 85 86 86 86 86 85 83 81 78 76 73 72 70 69 68 66 64 63 61 61 59 59 59 58 57 56 54 53 53
29 31 33 35 37 40 42 46 50 57 64 70 75 78 79 80 81 82 84 85 86 84 82 79 77 75 73 71 68 65 63 61 61 60 60 61 60 60 59 57 57 56 56
32 33 35 36 37 38 39 41 43 46 51 57 62 64 66 66 68 71 74 77 81 83 83 80 78 76 75 72 70 67 66 64 64 64 63 63 62 62 61 60 59 59 59
35 36 37 38 38 38 38 38 38 39 41 44 49 53 55 55 56 58 61 64 69 74 78 78 77 76 76 75 74 72 71 69 69 68 67 67 67 67 66 65 63 62 61
38 38 38 38 38 37 36 33 32 33 34 37 41 46 49 50 52 54 56 58 59 63 67 70 72 73 73 74 74 74 73 73 73 72 72 72 71 71 71 70 69 67 66
40 39 39 38 37 35 32 30 29 29 32 36 38 42 47 48 49 50 53 55 55 55 58 61 64 67 69 71 72 73 73 73 74 74 74 74 74 73 73 73 72 71 71
41 40 39 38 36 34 31 29 28 27 30 35 39 43 45 47 47 47 49 50 51 52 52 54 57 60 62 64 66 68 69 70 71 72 72 72 72 72 71 71 71 72 71
43 41 39 37 35 33 31 29 28 29 31 34 37 41 44 46 46 47 47 47 49 50 51 51 53 55 57 59 61 62 64 65 66 67 68 68 68 69 69 68 67 67 67
44 42 40 37 35 33 32 30 29 31 33 35 36 38 42 45 45 46 46 47 48 49 50 51 52 53 53 54 56 58 59 61 62 62 64 65 65 65 64 64 64 64 64
43 42 40 38 36 35 34 32 31 32 34 37 38 38 39 42 44 45 45 46 47 48 49 51 52 52 52 52 53 54 55 58 59 60 62 62 63 63 63 62 62 62 62
40 40 40 39 38 36 36 35 33 34 35 36 38 39 39 40 42 44 45 46 46 47 48 50 51 52 53 52 52 52 53 54 55 56 57 57 57 58 58 59 59 59 60
36 37 38 39 39 39 38 38 36 35 36 38 39 39 39 39 41 43 45 46 47 47 48 49 49 51 51 52 52 52 53 53 53 53 53 53 53 53 54 55 56 57 57
34 33 34 37 39 40 41 40 39 38 37 38 39 40 40 40 41 43 46 47 48 48 48 49 49 49 50 50 50 51 51 51 51 51 51 51 51 51 52 52 53 54 56
Wind_Direction
264 264 263 262 260 258 256 253 251 249 247 245 243 242 242 241 240 238 236 234 233 235 238 239 238 236 235 235 235 236 238 240 241 242 242 241 240 239 239 239 240 241 243
262 261 261 260 259 258 256 254 253 251 249 247 245 243 242 240 239 238 236 234 232 233 236 239 239 238 237 237 237 238 239 241 243 245 246 246 246 246 245 245 245 246 247
260 258 258 257 256 256 255 254 252 251 249 248 246 245 243 242 240 239 238 236 234 234 235 238 240 240 240 240 241 241 242 243 245 247 248 249 250 250 251 251 250 250 250
261 258 257 255 254 253 253 253 252 250 249 248 247 246 245 244 243 241 240 238 237 236 236 238 240 241 242 242 243 244 245 246 247 248 250 251 251 252 253 254 254 254 254
262 260 258 256 254 252 251 251 251 250 249 248 247 246 246 245 244 243 241 240 239 238 238 238 240 242 242 243 244 245 246 247 248 249 251 252 253 254 254 255 255 256 256
262 261 259 258 256 254 252 251 250 249 249 248 247 246 246 246 245 244 243 242 241 240 240 240 240 242 243 243 243 244 245 246 248 249 251 252 253 254 255 255 255 255 256
260 259 259 258 258 257 256 254 252 250 249 248 247 246 246 245 245 245 244 243 242 242 242 242 242 243 244 244 244 244 245 246 248 249 251 252 253 254 255 255 255 256 256
260 259 259 258 258 257 257 256 255 253 250 249 248 247 245 245 245 245 244 244 244 243 243 243 243 243 244 245 246 246 247 247 248 249 251 252 253 254 254 254 255 255 255
259 259 259 259 258 258 257 256 256 255 253 251 250 249 247 244 244 244 244 244 244 244 244 244 244 244 245 245 246 247 248 249 250 251 251 252 253 253 253 254 254 255 255
261 260 260 260 260 259 258 257 256 256 254 253 252 251 249 247 245 243 243 243 243 244 244 245 245 245 245 246 246 248 249 249 250 251 252 252 252 252 253 253 254 254 255
264 263 262 261 261 261 260 259 257 256 254 253 253 252 251 249 247 245 243 243 243 243 243 244 244 245 245 246 247 247 248 249 250 251 252 252 252 252 252 252 252 253 254
268 267 265 264 262 261 261 260 258 256 254 253 252 251 251 250 249 247 245 243 243 243 243 243 243 244 244 245 246 246 247 248 248 249 250 251 251 251 250 250 250 251 252
268 267 266 265 264 263 260 258 256 254 252 251 250 250 250 249 249 248 247 246 244 243 243 243 243 243 244 244 245 245 245 245 245 244 245 246 248 249 249 248 248 248 249
272 270 271 270 269 267 263 260 256 252 250 248 247 246 247 247 247 247 247 246 245 244 243 243 243 243 243 243 243 243 243 242 241 241 241 242 244 246 248 248 248 247 247
283 280 279 278 277 274 271 267 263 256 250 247 244 243 243 244 244 244 245 245 245 244 243 243 242 242 242 242 242 241 239 238 236 236 236 238 240 243 245 246 246 247 247
289 286 284 283 282 280 278 275 269 260 253 247 243 241 240 239 240 241 242 243 244 244 243 241 241 240 240 239 239 237 236 234 233 233 234 235 237 238 240 242 243 245 246
292 289 287 286 284 283 282 279 272 263 255 245 240 236 233 232 234 234 236 238 240 241 241 240 239 238 238 237 236 236 235 234 233 232 232 233 234 236 238 239 240 242 243
293 291 289 287 285 284 282 279 272 262 250 238 234 230 227 228 230 230 231 233 235 237 238 238 236 235 235 235 234 234 234 233 233 232 232 233 234 236 238 240 242 243 244
292 291 289 287 285 283 279 276 269 259 244 233 230 226 224 225 226 227 229 230 231 233 234 234 234 233 233 233 233 233 233 233 232 233 233 234 236 238 240 242 244 246 247
289 289 288 286 283 280 274 269 262 255 243 233 230 227 224 224 225 228 229 231 231 232 232 233 232 232 232 232 232 233 233 233 234 234 235 236 238 241 243 244 246 247 248
284 284 284 282 279 275 268 262 257 248 242 237 233 230 226 225 227 228 229 230 230 231 232 232 232 232 232 232 233 233 234 234 234 235 236 238 240 242 243 245 246 248 249
280 278 278 277 274 270 263 257 252 244 241 240 239 236 233 230 229 229 229 230 230 231 231 231 231 232 232 232 233 233 234 234 236 237 238 239 241 242 244 245 246 248 249
279 274 271 270 269 265 260 254 249 243 241 241 240 239 238 236 234 232 230 230 231 232 232 231 230 231 233 233 234 235 235 236 236 237 238 239 241 242 243 244 246 247 248
283 273 267 264 262 260 256 252 247 243 241 240 240 239 238 237 236 234 232 231 231 231 231 231 231 231 231 232 234 235 236 238 238 237 238 239 239 241 242 243 244 245 246
293 280 268 261 258 255 252 249 245 242 240 239 238 237 236 236 235 234 233 231 231 231 231 231 232 232 231 232 234 235 236 237 237 237 239 240 240 241 242 243 244 245 245
303 291 276 263 256 253 249 246 243 240 239 238 237 236 236 235 233 231 230 230 229 229 229 229 230 231 231 231 232 234 235 236 236 237 238 239 240 243 244 245 246 246 246
Height
5747 5747 5747 5748 5749 5750 5752 5754 5755 5757 5759 5761 5764 5766 5769 5772 5775 5778 5782 5785 5788 5790 5793 5796 5799 5802 5805 5807 5811 5814 5817 5820 5823 5826 5828 5831 5834 5836 5838 5841 5843 5845 5847
5734 5734 5735 5736 5737 5738 5740 5742 5744 5746 5748 5751 5753 5756 5759 5762 5765 5768 5772 5775 5779 5782 5785 5788 5791 5794 5797 5800 5804 5807 5810 5813 5817 5820 5822 5825 5828 5831 5834 5836 5839 5841 5843
5719 5720 5721 5721 5723 5725 5727 5729 5731 5733 5736 5739 5742 5745 5748 5751 5754 5758 5761 5765 5769 5772 5776 5779 5782 5786 5789 5793 5796 5800 5803 5806 5809 5812 5815 5819 5822 5825 5828 5831 5833 5836 5838
5703 5704 5705 5706 5708 5710 5713 5715 5718 5720 5723 5726 5729 5732 5735 5739 5743 5746 5750 5754 5758 5762 5765 5769 5772 5776 5780 5784 5787 5791 5794 5798 5801 5804 5807 5811 5814 5817 5821 5824 5827 5829 5832
5685 5686 5688 5689 5691 5694 5697 5700 5703 5706 5709 5712 5715 5718 5722 5726 5730 5734 5738 5742 5746 5750 5754 5758 5761 5765 5770 5774 5778 5781 5785 5788 5792 5795 5798 5801 5805 5808 5812 5815 5818 5821 5824
5665 5666 5669 5671 5673 5676 5680 5682 5686 5689 5693 5697 5700 5704 5708 5711 5715 5720 5725 5729 5733 5737 5742 5746 5750 5754 5759 5763 5768 5772 5775 5779 5782 5785 5789 5792 5795 5798 5802 5805 5809 5812 5815
5645 5646 5648 5651 5653 5657 5660 5664 5667 5671 5676 5679 5683 5688 5692 5696 5701 5705 5710 5715 5720 5725 5729 5733 5738 5743 5747 5752 5756 5761 5765 5769 5772 5776 5779 5782 5785 5788 5792 5795 5799 5802 5805
5622 5624 5626 5629 5632 5636 5640 5643 5646 5651 5657 5661 5665 5669 5674 5681 5686 5690 5695 5700 5705 5710 5715 5720 5725 5730 5735 5739 5744 5749 5754 5758 5762 5765 5768 5771 5775 5778 5782 5785 5789 5792 5796
5598 5600 5603 5606 5609 5613 5618 5621 5625 5629 5635 5640 5644 5649 5654 5663 5668 5673 5678 5684 5689 5694 5700 5705 5711 5716 5721 5726 5731 5736 5741 5746 5750 5753 5757 5760 5764 5768 5772 5775 5779 5782 5785
5573 5575 5578 5581 5585 5589 5593 5598 5602 5606 5612 5618 5623 5628 5634 5641 5648 5655 5661 5666 5672 5678 5684 5689 5695 5701 5706 5712 5717 5722 5727 5732 5737 5740 5744 5748 5752 5757 5761 5764 5768 5771 5775
5550 5551 5554 5557 5561 5564 5568 5572 5577 5582 5588 5595 5600 5606 5612 5619 5626 5634 5642 5649 5653 5660 5666 5672 5678 5684 5690 5696 5702 5708 5713 5718 5723 5727 5730 5734 5739 5744 5749 5753 5757 5760 5764
5530 5530 5532 5534 5537 5540 5543 5546 5551 5556 5562 5569 5576 5582 5589 5596 5604 5611 5620 5628 5634 5641 5647 5654 5660 5667 5673 5680 5686 5692 5698 5704 5708 5713 5717 5721 5725 5731 5736 5741 5745 5748 5752
5514 5514 5514 5515 5516 5517 5519 5521 5525 5530 5535 5542 5550 5557 5564 5572 5581 5588 5596 5605 5613 5622 5628 5636 5643 5650 5657 5663 5670 5676 5682 5688 5693 5698 5703 5707 5711 5716 5722 5727 5732 5736 5740
5502 5502 5501 5501 5500 5499 5499 5499 5501 5505 5509 5515 5523 5531 5539 5547 5555 5564 5572 5581 5590 5600 5609 5617 5625 5632 5639 5646 5652 5659 5665 5671 5677 5683 5688 5693 5698 5703 5708 5713 5718 5723 5727
5491 5490 5489 5488 5486 5484 5483 5482 5482 5483 5486 5491 5498 5506 5514 5522 5530 5539 5548 5557 5567 5577 5588 5597 5605 5613 5621 5628 5635 5642 5648 5655 5661 5667 5672 5678 5683 5689 5694 5699 5704 5709 5714
5480 5478 5476 5474 5472 5470 5468 5466 5465 5464 5467 5471 5477 5485 5493 5501 5509 5518 5526 5534 5542 5554 5565 5575 5584 5593 5601 5609 5616 5623 5630 5638 5644 5651 5657 5663 5669 5674 5680 5685 5689 5694 5699
5469 5466 5463 5461 5459 5456 5454 5451 5449 5449 5451 5455 5461 5468 5477 5485 5492 5500 5507 5514 5522 5531 5542 5553 5563 5572 5580 5589 5597 5605 5613 5621 5628 5635 5642 5648 5654 5659 5664 5670 5674 5679 5684
5456 5453 5450 5448 5445 5443 5441 5439 5437 5437 5438 5443 5448 5454 5463 5470 5478 5485 5492 5499 5505 5513 5522 5532 5542 5552 5561 5569 5578 5586 5595 5603 5611 5618 5625 5631 5637 5642 5648 5654 5659 5664 5669
5443 5440 5437 5434 5432 5431 5429 5428 5426 5426 5428 5431 5436 5442 5449 5457 5463 5469 5476 5483 5490 5498 5506 5515 5524 5533 5542 5550 5559 5567 5576 5585 5593 5600 5607 5614 5620 5625 5631 5637 5643 5648 5653
5430 5427 5423 5421 5420 5419 5418 5417 5417 5417 5418 5421 5425 5430 5436 5443 5449 5455 5462 5469 5476 5484 5492 5500 5508 5517 5526 5534 5542 5551 5559 5567 5575 5583 5590 5597 5603 5609 5615 5621 5628 5632 5636
5415 5413 5410 5408 5407 5407 5406 5407 5407 5407 5409 5411 5414 5418 5424 5430 5437 5443 5449 5456 5464 5472 5480 5487 5495 5503 5511 5519 5528 5536 5543 5551 5558 5566 5574 5582 5588 5594 5598 5604 5610 5615 5619
5399 5397 5396 5395 5394 5393 5394 5395 5396 5398 5399 5401 5404 5408 5413 5419 5424 5431 5437 5445 5452 5460 5468 5475 5483 5490 5498 5506 5513 5520 5528 5536 5545 5555 5559 5564 5570 5576 5582 5589 5594 5599 5603
5382 5381 5380 5380 5380 5380 5380 5383 5385 5387 5389 5391 5394 5398 5402 5407 5413 5419 5426 5434 5441 5448 5455 5462 5469 5477 5484 5493 5501 5509 5515 5521 5529 5537 5541 5548 5554 5560 5566 5572 5578 5582 5587
5365 5364 5364 5364 5365 5366 5367 5369 5373 5376 5378 5381 5384 5388 5392 5397 5402 5408 5415 5422 5429 5436 5443 5450 5457 5464 5471 5478 5486 5494 5501 5507 5514 5520 5526 5532 5539 5544 5550 5556 5562 5566 5570
5350 5347 5347 5348 5350 5351 5352 5355 5359 5363 5366 5369 5373 5377 5381 5386 5391 5397 5404 5411 5417 5424 5430 5437 5444 5451 5458 5466 5474 5480 5487 5494 5500 5506 5512 5518 5524 5529 5535 5541 5546 5550 5555
5337 5334 5332 5333 5334 5335 5338 5341 5345 5350 5354 5357 5361 5366 5370 5375 5380 5385 5391 5398 5404 5411 5418 5425 5432 5439 5446 5453 5460 5467 5474 5480 5486 5492 5498 5504 5510 5515 5520 5526 5531 5535 5540